Regional Weather Roundup
Issued by NWS

Home | Current Version | Previous Version | Graphics & Text | Print | Product List | Glossary Off
Versions: 1 2 3 4 5 6 7 8 9 10 11 12 13 14 15 16 17 18 19 20 21 22 23 24 25 26 27 28 29 30 31 32 33 34 35 36 37 38 39 40 41 42 43 44 45 46 47 48 49 50

000
ASUS43 KMKX 310100
RWRWI

WISCONSIN REGIONAL WEATHER ROUNDUP
NATIONAL WEATHER SERVICE MILWAUKEE/SULLIVAN WI
800 PM CDT WED JUL 30 2014

NOTE: "FAIR" INDICATES FEW OR NO CLOUDS BELOW 12,000 FEET WITH NO
SIGNIFICANT WEATHER AND/OR OBSTRUCTIONS TO VISIBILITY.

WIZ001-002-006>008-014>016-023>028-310200-
NORTHWEST WISCONSIN

CITY           SKY/WX    TMP DP  RH WIND       PRES   REMARKS
SUPERIOR ARPT  CLEAR     74  60  61 W6        29.96S
ASHLAND        PTCLDY    65  60  84 SW5       29.96F
HAYWARD        CLOUDY    67  62  84 NE3       29.99F
SIREN          CLEAR     73  58  59 W5        30.01S
RICE LAKE      CLEAR     66  63  90 CALM      30.02F
LADYSMITH      MOCLDY    69  59  72 SW3       30.02S
EAU CLAIRE     LGT RAIN  66  64  93 SE9       30.01R
MENOMONIE      PTCLDY    74  58  57 SW5       30.01S
NEW RICHMOND   PTCLDY    72  57  59 W6        30.03R
OSCEOLA        CLEAR     74  59  59 W3        30.04S
$$

WIZ003>005-009-010-017-018-310200-
NORTH CENTRAL WISCONSIN

CITY           SKY/WX    TMP DP  RH WIND       PRES   REMARKS
WOODRUFF       PTCLDY    68  56  66 W5        29.99R
RHINELANDER    MOCLDY    66  57  72 CALM      30.01R
EAGLE RIVER    LGT RAIN  57  57  99 CALM      29.99F
LAND O LAKES   MOCLDY    58  57  95 CALM      30.00F
PHILLIPS       PTCLDY    64  59  85 CALM      30.00F
TOMAHAWK       HVY RAIN  60  55  82 W16G23    30.01R
MEDFORD        PTCLDY    67  58  72 CALM      30.01S
MERRILL        CLOUDY    68  57  67 W6        29.99S
$$

WIZ029-030-035-036-043>047-310200-
CENTRAL WISCONSIN

CITY           SKY/WX    TMP DP  RH WIND       PRES   REMARKS
WAUSAU         MOCLDY    69  54  58 W12       29.98S
MOSINEE        CLEAR     68  54  60 W9        30.01S
MARSHFIELD     PTCLDY    67  58  72 SW5       30.00F
STEVENS POINT  PTCLDY    70  53  55 W8        30.01R
WAUPACA        PTCLDY    73  50  45 W8        29.99S
WAUTOMA        NOT AVBL
WISC RAPIDS    PTCLDY    69  55  60 W3        30.01F
CAMP DOUGLAS   NOT AVBL
$$

WIZ011>013-019>022-031-037>040-048>050-310200-
NORTHEAST WISCONSIN

CITY           SKY/WX    TMP DP  RH WIND       PRES   REMARKS
ANTIGO         MOCLDY    65  54  67 W6        29.99S
STURGEON BAY   PTCLDY    63  52  67 S8        29.97F
GREEN BAY      PTCLDY    67  55  65 W5        29.97S
MANITOWOC      NOT AVBL
APPLETON       PTCLDY    68  50  52 VRB5      29.99R
CLINTONVILLE   PTCLDY    68  50  52 SW3       29.97F
OSHKOSH        CLEAR     70  52  52 CALM      29.98S
$$

WIZ032>034-041-042-053>061-310200-
SOUTHWEST WISCONSIN

CITY           SKY/WX    TMP DP  RH WIND       PRES   REMARKS
LA CROSSE      CLEAR     75  60  59 SW3       30.01S
SPARTA         PTCLDY    71  58  63 CALM      30.03R
VIROQUA        FAIR      69  60  72 W3        30.05R
BOSCOBEL       CLEAR     72  61  68 CALM      30.03S
PRAIRIE DU CHI CLEAR     75  56  51 CALM      30.02F
PLATTEVILLE    FAIR      71  56  59 NW5       30.05S
$$

WIZ056-057-062-063-064-067-068-310200-
SOUTH CENTRAL WISCONSIN

CITY           SKY/WX    TMP DP  RH WIND       PRES   REMARKS
BARABOO/DELLS  PTCLDY    70  51  51 W3        30.02F
LONE ROCK      NOT AVBL
WATERTOWN      CLEAR     70  55  57 W3        30.00S
MADISON        PTCLDY    70  52  52 NW3       30.01S
MIDDLETON      FAIR      70  51  51 NW6       30.02S
MONROE         CLEAR     70  52  52 NW6       30.03S
JANESVILLE     CLEAR     73  52  46 CALM      30.01S
$$

WIZ051-052-058>065-066-070>072-310200-
SOUTHEAST WISCONSIN

CITY           SKY/WX    TMP DP  RH WIND       PRES   REMARKS
MILWAUKEE      PTCLDY    65  51  60 S7        30.00F
WAUKESHA       PTCLDY    66  52  59 W5        30.01F
MILWAUKEE/TIMM CLEAR     70  50  49 NW3       30.01S
RACINE         CLEAR     65  52  62 S6        30.03S
BURLINGTON     CLEAR     66  52  60 CALM      30.01S
KENOSHA        CLEAR     64  56  75 S6        30.02S
FOND DU LAC    CLEAR     69  56  62 N5        29.99S
SHEBOYGAN      PTCLDY    64  53  67 S6        29.99S
WEST BEND      CLEAR     68  50  52 SW3       30.00S
JUNEAU         CLEAR     66  54  63 SW5       30.02S
$$

LSZ147-162-310200-
LAKE SUPERIOR

STATION/POSITION TIME  TEMP    WIND        PRES    WAVE
                       AIR SEA DIR/SP/G            HT/PER
                 (UTC) (F)     (DEG/KT/KT) (MB)    (FT/S)
W MID LAKE BUOY  2350   49 44  170/  8/  8 1014.1S   1/ 4
PORT WING        0040   72     170/  1/  1 1014.2S
SAXON HARBOR     0040          200/  5/  8 1014.2F
$$

LMZ867-665-643>646-310200-
LAKE MICHIGAN

STATION/POSITION TIME  TEMP    WIND        PRES    WAVE
                       AIR SEA DIR/SP/G            HT/PER
                 (UTC) (F)     (DEG/KT/KT) (MB)    (FT/S)
N MID LAKE BUOY  2350   57 55  180/  6/  8 1014.4F   0
NORTHPORT PIER   0000   63     160/  4/ 10 1014.2F
SISTER BAY       2355   65     160/  9/ 11   N/A
KEWAUNEE LAKESHO 0000   57     180/ 10/ 11 1014.9F
SHEBOYGAN LAKESH 0000   64     180/ 15/ 16 1015.7F
PORT WASHINGTON  0040   65     190/  3/  6 1016.3F
ATWATER BUOY     0000   64     160/  6     1017.0F
MILWAUKEE LAKESH 0000   63     150/  5/  6   N/A
S MID LAKE BUOY  2350   62 62   60/  2/  2 1016.4F   1
KENOSHA   LAKESH 0000   65     170/  4/  6 1015.9F
$$

TC  - TEMPERATURE IN CELSIUS
VSB - VISIBILITY IN STATUTE MILES
WCI - WIND CHILL INDEX
HX  - HEAT INDEX




USA.gov is the U.S. government's official web portal to all federal, state and local government web resources and services.